Tracking 19242 objects as of 20-Sep-2018
HD Live streaming from Space Station
objects crossing your sky now

FENGYUN 1C DEB

Track FENGYUN 1C DEB now!
10-day predictions


NORAD ID: 30640
Int'l Code: 1999-025ANX
Perigee: 822.9 km
Apogee: 954.4 km
Inclination: 99.2 °
Period: 102.6 minutes
Semi major axis: 7259 km
RCS: 0.018 m2 (small)
Launch date: May 10, 1999
Source: People's Republic of China (PRC)
Launch site: Taiyaun Space Center, China (TSC)

Note: This is SATELLITE DEBRIS
aabbcc
Your satellite tracking list
Your tracking list is empty




NASA's NSSDC Master Catalog

Two Line Element Set (TLE):
1 30640U 99025ANX 18262.48907612 +.00000330 +00000-0 +23147-3 0  9990
2 30640 099.2328 263.0438 0090611 244.3036 268.7135 14.03555318593096
Source of the keplerian elements: AFSPC